FW2346 Weather Reports


time (UTC)temp
F
wind
direction
speed
knots
gust
knots
rain 1hr
in
rain 24hr
in
rain mn
in
humidity
%
barometer
mb
20260505191502 68 300 1.7 7.0 0.00 0.00 0.00 54 1011.7
20260505173007 75 293 3.5 7.0 0.00 0.00 0.00 35 1011.3
20260505171505 75 306 2.6 9.6 0.00 0.00 0.00 35 1011.3
20260505123014 70 276 2.6 8.7 0.00 0.00 0.00 38 1013.6
20260505113004 67 242 1.7 7.8 0.00 0.00 0.00 43 1014.4
20260505101515 65 355 0.9 4.3 0.00 0.00 0.00 50 1014.9
20260505100018 64 339 2.6 8.7 0.00 0.00 0.00 51 1015.0
20260505094512 63 41 0.0 7.8 0.00 0.00 0.00 53 1015.1
20260505093004 63 40 0.0 7.0 0.00 0.00 0.00 52 1015.1
20260505084523 62 290 0.9 2.6 0.00 0.00 0.00 53 1015.1
20260505081517 60 345 1.7 4.3 0.00 0.00 0.00 56 1015.2
20260505074504 59 11 0.9 3.5 0.00 0.00 0.00 59 1015.3
20260505054505 55 342 0.9 1.7 0.00 0.00 0.00 68 1014.6
20260505053004 55 340 0.0 1.7 0.00 0.00 0.00 68 1014.4
20260505051501 55 345 0.0 4.3 0.00 0.00 0.00 67 1014.3
20260505041540 55 18 0.9 2.6 0.00 0.00 0.00 68 1014.2
20260505034510 56 35 1.7 5.2 0.00 0.00 0.00 66 1014.2
20260505031509 56 353 0.9 2.6 0.00 0.00 0.00 67 1014.2
20260505030001 56 356 0.0 2.6 0.00 0.00 0.00 67 1014.2
20260505023026 56 352 0.9 2.6 0.00 0.00 0.00 68 1014.2
20260505020157 57 345 0.9 2.6 0.00 0.00 0.00 67 1014.3
20260505014513 57 349 1.7 3.5 0.00 0.00 0.00 66 1014.3
20260505010014 57 314 0.9 3.5 0.00 0.00 0.00 67 1014.7
20260505004505 57 330 1.7 4.3 0.00 0.00 0.00 67 1014.6
20260505003027 57 317 1.7 4.3 0.00 0.00 0.00 66 1014.7
20260505000002 58 306 1.7 4.3 0.00 0.00 0.00 65 1014.9
20260504230016 59 311 1.7 5.2 0.00 0.00 0.00 64 1014.9
20260504213024 60 322 0.0 1.7 0.00 0.00 0.00 74 1014.7
20260504204512 61 262 2.6 5.2 0.00 0.00 0.00 70 1014.4
20260504201505 62 275 3.5 7.0 0.00 0.00 0.00 67 1014.2
20260504200004 62 248 1.7 5.2 0.00 0.00 0.00 66 1014.1